Regional Weather Roundup
Issued by NWS

Home | Current Version | Previous Version | Text Only | Print | Product List | Glossary On
Versions: 1 2 3 4 5 6 7 8 9 10 11 12 13 14
000
ASUS44 KBMX 190010
RWRAL

ALABAMA REGIONAL WEATHER ROUNDUP
NATIONAL WEATHER SERVICE BIRMINGHAM AL
700 PM CDT THU SEP 18 2014

NOTE: "FAIR" INDICATES FEW OR NO CLOUDS BELOW 12,000 FEET
WITH NO SIGNIFICANT WEATHER AND/OR OBSTRUCTIONS TO VISIBILITY.

THE REMARK "TC" DENOTES TEMPERATURE IN DEGREES CELSIUS.

ALZ001>011-014-016>018-020-190100-
NORTH ALABAMA

CITY           SKY/WX    TMP DP  RH WIND       PRES   REMARKS
MUSCLE SHOALS  MOCLDY    74  64  71 CALM      29.96S
6HR MIN TEMP:  74; 6HR MAX TEMP:  84; 6HR PCP: TRACE;

HUNTSVILLE     MOCLDY    76  65  68 N3        29.95R
6HR MIN TEMP:  76; 6HR MAX TEMP:  86;

DECATUR        CLOUDY    75  64  68 N3        29.96R
6HR MIN TEMP:  75; 6HR MAX TEMP:  84;

HALEYVILLE     FAIR      68  68 100 CALM      29.99R
6HR MIN TEMP:  68; 6HR MAX TEMP:  85; 6HR PCP:  0.09;

GADSDEN        MOCLDY    75  63  64 SW3       29.94R
6HR MIN TEMP:  75; 6HR MAX TEMP:  86;

$$

ALZ012-013-022-023-030>036-040>044-190100-
WEST CENTRAL ALABAMA

CITY           SKY/WX    TMP DP  RH WIND       PRES   REMARKS
TUSCALOOSA     CLOUDY    82  68  62 E3        29.92R
6HR MIN TEMP:  81; 6HR MAX TEMP:  90;

$$

ALZ015-024>027-033>036-040>044-190100-
CENTRAL ALABAMA

CITY           SKY/WX    TMP DP  RH WIND       PRES   REMARKS
BIRMINGHAM     MOCLDY    79  63  57 CALM      29.96S
6HR MIN TEMP:  79; 6HR MAX TEMP:  85;

MONTGOMERY     MOCLDY    82  60  47 CALM      29.92R
6HR MIN TEMP:  82; 6HR MAX TEMP:  92;

SHELBY CO ARPT CLEAR     79  66  64 CALM      29.95R
6HR MIN TEMP:  79; 6HR MAX TEMP:  86;

MAXWELL AFB    PTCLDY    77  68  73 VRB1      29.92R
6HR MIN TEMP:  77; 6HR MAX TEMP:  90;

GREENVILLE     FAIR      77  72  84 CALM      29.93R
6HR MIN TEMP:  77; 6HR MAX TEMP:  90;

$$

ALZ019-021-028-029-037-038-045>048-190100-
EAST CENTRAL ALABAMA

CITY           SKY/WX    TMP DP  RH WIND       PRES   REMARKS
ANNISTON       PTCLDY    74  66  76 CALM      29.94S
6HR MIN TEMP:  74; 6HR MAX TEMP:  84;

ALEXANDER CITY PTCLDY    76  69  79 CALM      29.96R
6HR MIN TEMP:  76; 6HR MAX TEMP:  89;

AUBURN         MOCLDY    73  59  60 NE5       29.99R
6HR MIN TEMP:  73; 6HR MAX TEMP:  86;

$$

ALZ051>064-190100-
SOUTHWEST ALABAMA

CITY           SKY/WX    TMP DP  RH WIND       PRES   REMARKS
MOBILE         LGT RAIN  70  70 100 W5        29.93S
6HR MIN TEMP:  70; 6HR MAX TEMP:  88; 6HR PCP:  0.61;

BROOKLEY FIELD CLOUDY    75  68  78 W5        29.93R
6HR MIN TEMP:  74; 6HR MAX TEMP:  88; 6HR PCP: TRACE;

EVERGREEN      CLOUDY    78  71  79 CALM      29.92R
6HR MIN TEMP:  78; 6HR MAX TEMP:  91;

$$

ALZ049-050-065>069-190100-
SOUTHEAST ALABAMA

CITY           SKY/WX    TMP DP  RH WIND       PRES   REMARKS
DOTHAN         PTCLDY    75  67  76 E3        29.96R
6HR MIN TEMP:  75; 6HR MAX TEMP:  90;

OZARK          PTCLDY    81  59  47 NE3       29.92R
6HR MIN TEMP:  81; 6HR MAX TEMP:  90;

TROY           MOCLDY    78  67  68 CALM      29.94R
6HR MIN TEMP:  77; 6HR MAX TEMP:  90;

EUFAULA        FAIR      75  69  81 CALM      29.93R
6HR MIN TEMP:  75; 6HR MAX TEMP:  91;

$$



USA.gov is the U.S. government's official web portal to all federal, state and local government web resources and services.